Total_Precipitation_Accumulation
0.01 0.01 0.02 0.01 0.01 0.02 0.02 0.05 0.04 0.05 0.08 0.08 0.12 0.15 0.17 0.20 0.16 0.10 0.08 0.08 0.11 0.10 0.09 0.12 0.17 0.35 0.16 0.11 0.03 0.08 0.09 0.15 0.48 0.67 0.30 0.10 0.01 0.04 0.02 0.02 0.11 0.05 0.05 0.10 0.13 0.14 0.08
0.01 0.01 0.01 0.01 0.01 0.01 0.02 0.04 0.04 0.07 0.09 0.10 0.14 0.14 0.16 0.17 0.16 0.13 0.11 0.12 0.15 0.16 0.04 0.03 0.17 0.16 0.09 0.15 0.04 0.04 0.10 0.12 0.47 0.61 0.34 0.15 0.01 0.02 0.02 0.03 0.06 0.05 0.07 0.09 0.12 0.15 0.11
0.00 0.00 0.01 0.01 0.01 0.02 0.02 0.03 0.04 0.08 0.10 0.11 0.14 0.15 0.17 0.15 0.07 0.06 0.08 0.11 0.08 0.11 0.03 0.01 0.07 0.06 0.04 0.02 0.03 0.07 0.09 0.17 0.34 0.59 0.33 0.15 0.03 0.04 0.03 0.06 0.05 0.10 0.16 0.21 0.12 0.09 0.12
0.00 0.00 0.00 0.01 0.01 0.01 0.02 0.03 0.04 0.08 0.12 0.12 0.14 0.14 0.16 0.13 0.05 0.03 0.05 0.06 0.01 0.01 0.02 0.02 0.02 0.01 0.01 0.00 0.01 0.05 0.08 0.32 0.16 0.52 0.64 0.40 0.10 0.06 0.06 0.05 0.06 0.13 0.23 0.18 0.10 0.08 0.10
0.01 0.01 0.00 0.01 0.01 0.01 0.03 0.04 0.05 0.10 0.11 0.09 0.09 0.11 0.14 0.08 0.03 0.02 0.01 0.00 0.00 0.01 0.03 0.01 0.02 0.01 0.00 0.00 0.05 0.11 0.08 0.46 0.35 0.48 1.07 0.77 0.24 0.06 0.06 0.06 0.09 0.09 0.04 0.06 0.08 0.04 0.01
0.04 0.02 0.00 0.00 0.01 0.01 0.03 0.04 0.05 0.10 0.07 0.07 0.08 0.05 0.07 0.03 0.02 0.01 0.01 0.00 0.00 0.02 0.04 0.03 0.04 0.04 0.02 0.00 0.14 0.16 0.11 0.53 0.61 0.62 1.58 1.57 0.69 0.12 0.06 0.04 0.03 0.00 0.00 0.01 0.04 0.03 0.02
0.06 0.03 0.02 0.00 0.01 0.01 0.03 0.04 0.05 0.09 0.05 0.06 0.07 0.04 0.03 0.02 0.01 0.01 0.00 0.03 0.09 0.07 0.03 0.04 0.01 0.02 0.08 0.11 0.19 0.17 0.17 0.77 0.91 0.78 1.68 1.82 0.85 0.08 0.01 0.00 0.00 0.00 0.00 0.00 0.01 0.04 0.02
0.06 0.05 0.02 0.00 0.01 0.02 0.02 0.03 0.05 0.06 0.06 0.05 0.05 0.03 0.03 0.02 0.01 0.01 0.00 0.02 0.02 0.03 0.01 0.00 0.00 0.00 0.03 0.08 0.30 0.29 0.37 1.38 1.10 0.76 1.22 1.41 0.47 0.02 0.00 0.00 0.00 0.00 0.00 0.00 0.00 0.04 0.06
0.08 0.04 0.02 0.00 0.01 0.01 0.01 0.03 0.04 0.05 0.05 0.05 0.04 0.03 0.03 0.01 0.01 0.00 0.00 0.00 0.00 0.00 0.06 0.06 0.02 0.01 0.13 0.43 0.52 0.48 0.71 1.22 0.95 0.49 0.80 0.70 0.15 0.01 0.02 0.01 0.00 0.00 0.00 0.00 0.00 0.01 0.03
0.06 0.04 0.00 0.01 0.01 0.01 0.01 0.02 0.03 0.04 0.04 0.05 0.03 0.03 0.02 0.01 0.00 0.00 0.00 0.00 0.00 0.00 0.32 0.29 0.14 0.15 0.39 0.73 0.68 0.55 0.52 0.95 1.02 0.58 0.74 0.84 0.11 0.02 0.04 0.04 0.00 0.00 0.00 0.00 0.00 0.00 0.00
0.02 0.01 0.00 0.01 0.01 0.01 0.02 0.02 0.03 0.03 0.04 0.03 0.02 0.02 0.02 0.02 0.00 0.00 0.00 0.00 0.00 0.01 0.44 0.46 0.31 0.31 0.67 0.63 0.45 0.53 0.51 0.57 0.51 0.67 0.72 0.77 0.20 0.04 0.04 0.03 0.00 0.00 0.00 0.00 0.00 0.00 0.00
0.01 0.00 0.00 0.01 0.01 0.01 0.01 0.02 0.02 0.02 0.03 0.01 0.02 0.03 0.02 0.01 0.00 0.00 0.00 0.00 0.00 0.04 0.40 0.75 0.62 0.62 0.61 0.36 0.31 0.38 0.46 0.42 0.57 0.61 0.47 0.40 0.15 0.15 0.07 0.04 0.00 0.00 0.00 0.00 0.00 0.00 0.00
0.01 0.00 0.00 0.00 0.01 0.01 0.01 0.01 0.02 0.02 0.01 0.01 0.01 0.02 0.01 0.00 0.00 0.00 0.00 0.00 0.01 0.06 0.21 0.34 0.35 0.29 0.26 0.27 0.21 0.17 0.41 0.55 0.62 0.75 0.89 0.80 0.37 0.16 0.05 0.04 0.00 0.00 0.00 0.02 0.03 0.01 0.00
0.01 0.00 0.00 0.00 0.01 0.01 0.01 0.01 0.01 0.01 0.00 0.01 0.00 0.00 0.00 0.00 0.00 0.00 0.00 0.00 0.02 0.09 0.16 0.15 0.24 0.29 0.28 0.17 0.18 0.17 0.33 0.35 0.21 0.13 0.56 0.74 0.76 0.29 0.19 0.03 0.01 0.00 0.00 0.01 0.01 0.00 0.00
0.01 0.00 0.00 0.00 0.00 0.01 0.01 0.01 0.01 0.00 0.00 0.00 0.00 0.00 0.00 0.00 0.00 0.00 0.00 0.00 0.00 0.02 0.07 0.05 0.15 0.25 0.23 0.13 0.12 0.16 0.20 0.16 0.12 0.10 0.24 0.19 0.22 0.19 0.19 0.05 0.03 0.03 0.00 0.00 0.00 0.00 0.00
0.01 0.00 0.00 0.00 0.00 0.01 0.01 0.01 0.01 0.00 0.00 0.00 0.00 0.00 0.00 0.00 0.00 0.00 0.00 0.00 0.00 0.00 0.01 0.01 0.09 0.10 0.08 0.07 0.06 0.05 0.10 0.06 0.02 0.02 0.00 0.00 0.10 0.13 0.14 0.11 0.05 0.00 0.00 0.02 0.00 0.00 0.00
0.02 0.00 0.00 0.00 0.00 0.01 0.00 0.00 0.00 0.00 0.00 0.00 0.00 0.00 0.00 0.00 0.00 0.01 0.00 0.01 0.00 0.00 0.00 0.04 0.02 0.01 0.00 0.02 0.01 0.00 0.00 0.01 0.01 0.01 0.00 0.00 0.02 0.11 0.18 0.21 0.07 0.01 0.01 0.01 0.01 0.00 0.00
0.02 0.01 0.00 0.00 0.00 0.01 0.00 0.00 0.00 0.00 0.00 0.00 0.00 0.00 0.00 0.00 0.01 0.00 0.00 0.00 0.00 0.00 0.00 0.00 0.01 0.01 0.00 0.00 0.00 0.00 0.00 0.00 0.00 0.00 0.00 0.00 0.00 0.04 0.09 0.02 0.00 0.01 0.00 0.01 0.01 0.00 0.00
0.08 0.01 0.00 0.00 0.00 0.01 0.00 0.00 0.00 0.00 0.00 0.00 0.00 0.00 0.00 0.01 0.01 0.00 0.00 0.00 0.00 0.00 0.00 0.00 0.00 0.02 0.02 0.01 0.00 0.00 0.00 0.00 0.00 0.00 0.00 0.00 0.00 0.06 0.13 0.10 0.02 0.01 0.00 0.01 0.01 0.00 0.00
0.16 0.03 0.00 0.00 0.00 0.01 0.00 0.00 0.00 0.00 0.00 0.00 0.00 0.00 0.00 0.01 0.00 0.00 0.00 0.00 0.00 0.00 0.00 0.00 0.00 0.00 0.00 0.00 0.00 0.00 0.00 0.00 0.00 0.00 0.00 0.00 0.00 0.00 0.01 0.02 0.01 0.00 0.00 0.00 0.03 0.05 0.01
0.08 0.02 0.00 0.00 0.00 0.01 0.00 0.00 0.00 0.00 0.00 0.00 0.00 0.00 0.00 0.00 0.00 0.00 0.00 0.00 0.00 0.00 0.00 0.00 0.00 0.00 0.00 0.00 0.00 0.00 0.00 0.00 0.00 0.00 0.00 0.00 0.00 0.00 0.00 0.00 0.00 0.00 0.00 0.00 0.01 0.01 0.02
0.10 0.03 0.00 0.00 0.01 0.01 0.00 0.00 0.00 0.00 0.00 0.00 0.00 0.00 0.00 0.00 0.00 0.00 0.00 0.01 0.01 0.00 0.00 0.00 0.00 0.00 0.00 0.00 0.00 0.00 0.00 0.00 0.00 0.00 0.01 0.00 0.00 0.00 0.00 0.00 0.00 0.00 0.00 0.00 0.00 0.00 0.00
0.13 0.04 0.00 0.00 0.01 0.01 0.00 0.00 0.00 0.00 0.00 0.00 0.00 0.00 0.00 0.00 0.00 0.00 0.00 0.00 0.00 0.00 0.00 0.00 0.01 0.01 0.00 0.00 0.00 0.00 0.00 0.00 0.00 0.00 0.00 0.00 0.00 0.00 0.00 0.00 0.00 0.00 0.00 0.00 0.00 0.00 0.00
0.13 0.03 0.00 0.01 0.00 0.01 0.00 0.00 0.00 0.00 0.00 0.00 0.00 0.00 0.00 0.00 0.00 0.00 0.00 0.00 0.00 0.00 0.00 0.00 0.00 0.01 0.00 0.00 0.00 0.00 0.00 0.00 0.00 0.00 0.00 0.00 0.00 0.00 0.00 0.00 0.00 0.00 0.00 0.00 0.00 0.00 0.00
0.13 0.03 0.00 0.01 0.01 0.01 0.00 0.00 0.01 0.00 0.00 0.00 0.00 0.00 0.00 0.00 0.00 0.00 0.00 0.00 0.00 0.00 0.00 0.00 0.00 0.00 0.00 0.00 0.00 0.00 0.00 0.00 0.00 0.00 0.00 0.00 0.00 0.00 0.00 0.00 0.00 0.00 0.00 0.00 0.00 0.00 0.00
0.04 0.02 0.00 0.00 0.00 0.00 0.00 0.00 0.01 0.00 0.00 0.00 0.00 0.00 0.00 0.00 0.00 0.00 0.00 0.00 0.00 0.00 0.00 0.00 0.00 0.00 0.00 0.01 0.01 0.01 0.00 0.00 0.00 0.00 0.00 0.00 0.00 0.00 0.00 0.00 0.00 0.00 0.00 0.00 0.00 0.00 0.00
0.03 0.01 0.00 0.00 0.00 0.00 0.00 0.00 0.01 0.01 0.00 0.00 0.00 0.00 0.00 0.00 0.00 0.00 0.00 0.00 0.00 0.00 0.00 0.00 0.00 0.00 0.00 0.02 0.02 0.01 0.00 0.00 0.00 0.00 0.00 0.01 0.01 0.02 0.02 0.02 0.00 0.00 0.00 0.00 0.00 0.00 0.00
0.02 0.00 0.01 0.01 0.00 0.01 0.01 0.00 0.01 0.01 0.00 0.00 0.00 0.00 0.00 0.00 0.00 0.00 0.00 0.00 0.00 0.00 0.00 0.00 0.00 0.00 0.01 0.03 0.01 0.01 0.00 0.00 0.00 0.00 0.00 0.00 0.00 0.01 0.01 0.02 0.00 0.00 0.00 0.00 0.00 0.00 0.00
0.01 0.01 0.03 0.01 0.00 0.01 0.02 0.00 0.01 0.02 0.05 0.03 0.01 0.00 0.00 0.00 0.00 0.00 0.00 0.00 0.00 0.00 0.00 0.00 0.00 0.00 0.01 0.02 0.02 0.01 0.00 0.00 0.00 0.00 0.00 0.00 0.00 0.00 0.00 0.00 0.00 0.00 0.00 0.00 0.00 0.00 0.00